Oelwein, IA

9:45 AM CST on December 14, 2019 (GMT -0600)
Oelwein Municipal

Weather History for KOLZ - October, 2019

Change the Weather History Date:

Wednesday, October 9, 2019

  Actual Average Record
Temperature  
Mean Temperature 58 °F -  
Max Temperature 69 °F 60 °F 82 °F (2003)
Min Temperature 46 °F 40 °F 25 °F (1964)
Degree Days  
Heating Degree Days 8    
Growing Degree Days 8 (Base 50)    
Moisture  
Dew Point 48 °F    
Average Humidity 71    
Maximum Humidity 100    
Minimum Humidity 43    
Precipitation  
Precipitation 0.01 in - - ()
Sea Level Pressure  
Sea Level Pressure 30.02 in    
Wind  
Wind Speed 11 mph (SSE)    
Max Wind Speed 20 mph    
Max Gust Speed 25 mph    
Visibility 10 miles    
Events      
Averages and records for this station are not official NWS values.
T = Trace of Precipitation, MM = Missing Value Source: NWS Daily Summary

Daily Weather History Graph

Daily Weather History Graph

Search for Another Location

Airport or City:

Astronomy

Oct. 09, 2019 Rise Set
Actual Time 7:13 AM CDT 6:35 PM CDT
Civil Twilight 6:45 AM CDT 7:03 PM CDT
Nautical Twilight 6:12 AM CDT 7:36 PM CDT
Astronomical Twilight 5:40 AM CDT 8:09 PM CDT
Moon 5:14 PM CDT (10/9) 2:53 AM CDT (10/9)
Length of Visible Light 12h 18m
Length of Day
11h 21m
Waxing Gibbous, 85% of the Moon is Illuminated
Oct 9
Waxing Gibbous
Oct 13
Full
Oct 21
Last Quarter
Oct 27
New
Nov 4
First Quarter

Hourly Weather History & Observations

Time (CDT) Temp. Windchill Dew Point Humidity Pressure Visibility Wind Dir Wind Speed Gust Speed Precip Events Conditions
12:15 AM 51.8 °F - 46.4 °F 82% 30.05 in 10.0 mi SSE 9.2 mph - N/A   Clear
12:35 AM 51.8 °F - 46.4 °F 82% 30.04 in 10.0 mi SSE 11.5 mph - N/A   Clear
12:55 AM 51.8 °F - 46.4 °F 82% 30.04 in 10.0 mi South 10.4 mph - N/A   Clear
1:15 AM 51.8 °F - 46.4 °F 82% 30.05 in 10.0 mi SSE 9.2 mph - N/A   Clear
1:35 AM 51.8 °F - 46.4 °F 82% 30.05 in 10.0 mi South 9.2 mph - N/A   Clear
1:55 AM 50.0 °F - 46.4 °F 87% 30.05 in 10.0 mi SSE 10.4 mph - N/A   Clear
2:15 AM 50.0 °F - 46.4 °F 87% 30.05 in 10.0 mi SSE 10.4 mph - N/A   Clear
2:35 AM 50.0 °F - 46.4 °F 87% 30.05 in 10.0 mi SSE 10.4 mph - N/A   Clear
2:55 AM 48.2 °F - 46.4 °F 93% 30.05 in 10.0 mi SSE 9.2 mph - N/A   Clear
3:15 AM 46.4 °F 41.9 °F 46.4 °F 100% 30.04 in 10.0 mi SSE 9.2 mph - N/A   Clear
3:35 AM 46.4 °F 41.5 °F 46.4 °F 100% 30.04 in 10.0 mi SSE 10.4 mph - N/A   Clear
4:15 AM 46.4 °F 41.9 °F 46.4 °F 100% 30.04 in 10.0 mi SE 9.2 mph - N/A   Clear
4:35 AM 46.4 °F 41.9 °F 46.4 °F 100% 30.04 in 10.0 mi SE 9.2 mph - N/A   Clear
4:55 AM 46.4 °F 41.9 °F 46.4 °F 100% 30.04 in 10.0 mi SE 9.2 mph - N/A   Clear
5:15 AM 46.4 °F 41.5 °F 46.4 °F 100% 30.03 in 10.0 mi SE 10.4 mph - N/A   Clear
5:35 AM 46.4 °F 41.9 °F 46.4 °F 100% 30.03 in 10.0 mi SE 9.2 mph - N/A   Clear
5:55 AM 46.4 °F 41.9 °F 46.4 °F 100% 30.04 in 10.0 mi SE 9.2 mph - N/A   Clear
6:15 AM 46.4 °F 42.4 °F 46.4 °F 100% 30.04 in 10.0 mi SE 8.1 mph - N/A   Clear
6:35 AM 46.4 °F 41.9 °F 46.4 °F 100% 30.04 in 10.0 mi SE 9.2 mph - N/A   Clear
6:55 AM 46.4 °F 41.9 °F 46.4 °F 100% 30.04 in 10.0 mi SSE 9.2 mph - N/A   Clear
7:15 AM 46.4 °F 41.9 °F 46.4 °F 100% 30.04 in 10.0 mi SE 9.2 mph - N/A   Clear
7:35 AM 46.4 °F 41.9 °F 46.4 °F 100% 30.04 in 10.0 mi SE 9.2 mph - N/A   Clear
7:55 AM 48.2 °F - 46.4 °F 93% 30.04 in 10.0 mi SE 10.4 mph - N/A   Clear
8:15 AM 50.0 °F - 48.2 °F 94% 30.04 in 10.0 mi SSE 10.4 mph - N/A   Clear
8:35 AM 53.6 °F - 48.2 °F 82% 30.04 in 10.0 mi SSE 11.5 mph - N/A   Clear
8:55 AM 55.4 °F - 48.2 °F 77% 30.04 in 10.0 mi SSE 13.8 mph - N/A   Clear
9:35 AM 59.0 °F - 50.0 °F 72% 30.06 in 10.0 mi South 15.0 mph - N/A   Clear
9:55 AM 60.8 °F - 50.0 °F 68% 30.06 in 10.0 mi South 17.3 mph 23.0 mph N/A   Clear
10:15 AM 60.8 °F - 50.0 °F 68% 30.06 in 10.0 mi South 15.0 mph 23.0 mph N/A   Clear
10:35 AM 62.6 °F - 50.0 °F 63% 30.06 in 10.0 mi SSE 12.7 mph 20.7 mph N/A   Clear
10:55 AM 64.4 °F - 50.0 °F 59% 30.06 in 10.0 mi South 17.3 mph - N/A   Clear
11:15 AM 66.2 °F - 48.2 °F 52% 30.05 in 10.0 mi South 16.1 mph 23.0 mph N/A   Clear
11:55 AM 66.2 °F - 48.2 °F 52% 30.05 in 10.0 mi South 17.3 mph 24.2 mph N/A   Clear
12:15 PM 66.2 °F - 48.2 °F 52% 30.04 in 10.0 mi South 15.0 mph 24.2 mph N/A   Clear
12:35 PM 66.2 °F - 48.2 °F 52% 30.05 in 10.0 mi South 15.0 mph 25.3 mph N/A   Clear
12:55 PM 66.2 °F - 48.2 °F 52% 30.04 in 10.0 mi South 12.7 mph 19.6 mph N/A   Clear
1:15 PM 68.0 °F - 48.2 °F 49% 30.03 in 10.0 mi South 17.3 mph - N/A   Clear
1:35 PM 69.8 °F - 46.4 °F 43% 30.02 in 10.0 mi SSE 16.1 mph - N/A   Clear
1:55 PM 68.0 °F - 46.4 °F 46% 30.01 in 10.0 mi SSE 15.0 mph 24.2 mph N/A   Clear
2:15 PM 68.0 °F - 46.4 °F 46% 30.00 in 10.0 mi South 13.8 mph 20.7 mph N/A   Clear
2:35 PM 68.0 °F - 48.2 °F 49% 30.00 in 10.0 mi SSE 16.1 mph - N/A   Clear
2:55 PM 68.0 °F - 46.4 °F 46% 30.00 in 10.0 mi SE 13.8 mph - N/A   Clear
3:15 PM 68.0 °F - 48.2 °F 49% 29.99 in 10.0 mi SSE 15.0 mph - N/A   Clear
3:35 PM 68.0 °F - 46.4 °F 46% 29.99 in 10.0 mi SSE 16.1 mph 24.2 mph N/A   Clear
3:55 PM 68.0 °F - 46.4 °F 46% 29.98 in 10.0 mi SSE 18.4 mph 25.3 mph N/A   Clear
4:15 PM 68.0 °F - 46.4 °F 46% 29.98 in 10.0 mi SSE 16.1 mph 23.0 mph N/A   Clear
4:35 PM 66.2 °F - 48.2 °F 52% 29.98 in 10.0 mi SSE 13.8 mph 19.6 mph N/A   Clear
4:55 PM 66.2 °F - 46.4 °F 49% 29.99 in 10.0 mi SSE 15.0 mph - N/A   Clear
5:15 PM 66.2 °F - 46.4 °F 49% 29.99 in 10.0 mi SSE 19.6 mph - N/A   Clear
5:35 PM 64.4 °F - 46.4 °F 52% 29.99 in 10.0 mi SSE 13.8 mph - N/A   Clear
5:55 PM 64.4 °F - 46.4 °F 52% 29.98 in 10.0 mi SE 9.2 mph - N/A   Clear
6:15 PM 62.6 °F - 46.4 °F 55% 29.99 in 10.0 mi SSE 11.5 mph 17.3 mph N/A   Clear
6:35 PM 62.6 °F - 48.2 °F 59% 29.98 in 10.0 mi ESE 10.4 mph - N/A   Clear
6:55 PM 60.8 °F - 48.2 °F 63% 29.98 in 10.0 mi SE 9.2 mph - N/A   Mostly Cloudy
7:15 PM 60.8 °F - 48.2 °F 63% 29.98 in 10.0 mi SE 6.9 mph - N/A   Overcast
7:35 PM 60.8 °F - 48.2 °F 63% 29.98 in 10.0 mi SE 9.2 mph - N/A   Overcast
7:55 PM 60.8 °F - 50.0 °F 68% 29.98 in 10.0 mi SE 9.2 mph - N/A   Overcast
8:15 PM 60.8 °F - 48.2 °F 63% 29.98 in 10.0 mi SE 11.5 mph - N/A   Overcast
8:35 PM 60.8 °F - 48.2 °F 63% 29.97 in 10.0 mi ESE 10.4 mph 17.3 mph N/A   Overcast
8:55 PM 60.8 °F - 48.2 °F 63% 29.97 in 10.0 mi SE 11.5 mph - N/A   Overcast
9:15 PM 60.8 °F - 48.2 °F 63% 29.98 in 10.0 mi SE 10.4 mph - N/A   Overcast
9:35 PM 60.8 °F - 48.2 °F 63% 29.97 in 10.0 mi ESE 10.4 mph - N/A   Overcast
9:55 PM 60.8 °F - 48.2 °F 63% 29.97 in 10.0 mi ESE 9.2 mph - N/A   Overcast
10:15 PM 60.8 °F - 48.2 °F 63% 29.98 in 10.0 mi SE 10.4 mph - N/A   Overcast
10:35 PM 59.0 °F - 50.0 °F 72% 30.00 in 10.0 mi SE 5.8 mph - N/A   Overcast
10:55 PM 59.0 °F - 50.0 °F 72% 30.00 in 10.0 mi SE 5.8 mph - N/A   Overcast
11:15 PM 57.2 °F - 50.0 °F 77% 30.02 in 10.0 mi South 3.5 mph - N/A   Overcast
11:35 PM 57.2 °F - 51.8 °F 82% 30.02 in 10.0 mi Calm Calm - N/A   Overcast
11:55 PM 55.4 °F - 53.6 °F 94% 30.04 in 10.0 mi West 8.1 mph - 0.01 in   Mostly Cloudy